User: anonymous   Login
Location: Unspecified
(34.2308°N, 0.0000°E)
Time: 10:22:00
(UTC+00:00)
Language:

Cosmos 1602 Rocket - Orbit

View from above orbital plane
View from above orbital plane
View from above satellite
View from above satellite

Ground track
Ground track

The orbit is defined by the following mean orbital elements,

1 15332U          26088.23213970 +.00000000 +00000-0 +72388-4 0 00000
2 15332  82.5315  67.2341 0018932 220.9857 150.3111 14.85859056    02
Epoch (UTC): 29 March 2026 05:34:16
Eccentricity: 0.0018932
inclination: 82.5315°
perigee height: 598 km
apogee height: 624 km
right ascension of ascending node: 67.2341°
argument of perigee: 220.9857°
revolutions per day: 14.85859056
mean anomaly at epoch: 150.3111°

The dashed part of the orbit path shows where the satellite is in the earth's shadow,  

DLR